Location: Brachstadt
(48.6975°N, 10.6755°E)
Time: 03:10:03
(UTC+00:00)

Envisat - Pass Details

Date: 04 December 2022
Orbit: 763 x 765 km, 98.2° (Epoch: 28 January)

Event Time Altitude Azimuth Distance (km) Brightness Sun altitude
Rises 03:41:33 0° 13° (NNE) 3,246 6.4 -30.5°
Reaches altitude 10° 03:43:52 10° 14° (NNE) 2,315 5.6 -30.1°
Enters shadow 03:46:01 26° 14° (NNE) 1,487 4.5 -29.8°
